Welcome to Des Moines Iowa Weather. I am an independent private personal weather station on the Northwest Side of Des Moines, Iowa. Just East of Windsor Heights and just West of Glendale . This site is also mobile friendly.

There are no active watches, warnings or advisories


Visit our other weather sites:

Historical Data

Weather Station Setup



Weather Underground History page Text

Daily Summary for January 17, 2017 Units:  English    Metric   Both
« Previous Day
Next Day »
Daily Weekly Monthly Yearly Custom
  High: Low: Average:
Temperature: 34.6 °F 30.9 °F 33 °F
Dew Point: 34.0 °F 29.6 °F 32.1 °F
Humidity: 98 % 94 % 97 %
Wind Speed: 8.0 mph 0.0 mph 1.6 mph
Wind Gust: 11.0 mph - -
Wind:- - WNW
Pressure: 30.16 in 29.91 in -
Precipitation: 0.00 in    
Historical Graphs
 
 
Tabular Data for January 17, 2017
Time Temperature Dew Point Pressure Wind Wind Speed Wind Gust Humidity Rainfall Rate (Hourly)
00:00 32.7 °F 32.0 °F 29.92 in NNW 1.0 mph 4.0 mph 97 % 0.00 in
00:05 32.7 °F 32.0 °F 29.91 in NNW 2.0 mph 2.0 mph 98 % 0.01 in
00:10 32.7 °F 32.0 °F 29.92 in NNW 1.0 mph 4.0 mph 97 % 0.00 in
00:15 32.7 °F 32.0 °F 29.92 in NNW 1.0 mph 4.0 mph 97 % 0.00 in
00:20 32.7 °F 32.0 °F 29.91 in Calm   2.0 mph 98 % 0.01 in
00:25 32.7 °F 32.0 °F 29.92 in NNW 1.0 mph 4.0 mph 97 % 0.00 in
00:30 32.7 °F 32.0 °F 29.92 in NNW 1.0 mph 4.0 mph 97 % 0.00 in
00:35 32.7 °F 32.0 °F 29.92 in NNW 2.0 mph 5.0 mph 98 % 0.01 in
00:40 32.7 °F 32.0 °F 29.92 in NNW 1.0 mph 4.0 mph 97 % 0.00 in
00:45 32.7 °F 32.0 °F 29.92 in NNW 1.0 mph 4.0 mph 97 % 0.00 in
00:50 32.7 °F 32.0 °F 29.92 in Calm   5.0 mph 98 % 0.01 in
00:55 32.7 °F 32.0 °F 29.92 in NW 2.0 mph 8.0 mph 97 % 0.00 in
01:00 32.7 °F 32.0 °F 29.92 in NW 2.0 mph 8.0 mph 97 % 0.00 in
01:05 32.8 °F 32.0 °F 29.93 in NW 2.0 mph 5.0 mph 98 % 0.00 in
01:10 32.7 °F 32.0 °F 29.93 in NW 1.0 mph 4.0 mph 97 % 0.00 in
01:15 32.7 °F 32.0 °F 29.93 in NW 1.0 mph 4.0 mph 97 % 0.00 in
01:20 32.8 °F 32.0 °F 29.93 in Calm   4.0 mph 98 % 0.00 in
01:25 32.8 °F 32.0 °F 29.93 in NW 2.0 mph 6.0 mph 97 % 0.00 in
01:30 32.8 °F 32.0 °F 29.93 in NW 2.0 mph 6.0 mph 97 % 0.00 in
01:35 32.8 °F 32.0 °F 29.93 in NW 2.0 mph 6.0 mph 97 % 0.00 in
01:36 32.7 °F 32.0 °F 29.93 in NNW 2.0 mph 4.0 mph 98 % 0.00 in
01:40 32.8 °F 32.0 °F 29.93 in NW 2.0 mph 5.0 mph 97 % 0.00 in
01:45 32.8 °F 32.0 °F 29.93 in NW 2.0 mph 5.0 mph 97 % 0.00 in
01:50 32.8 °F 32.0 °F 29.93 in Calm   5.0 mph 98 % 0.00 in
01:55 32.7 °F 32.0 °F 29.94 in NW 2.0 mph 5.0 mph 97 % 0.00 in
02:00 32.7 °F 32.0 °F 29.94 in NW 2.0 mph 5.0 mph 97 % 0.00 in
02:05 32.8 °F 32.0 °F 29.94 in NW 2.0 mph 8.0 mph 98 % 0.00 in
02:10 32.8 °F 32.0 °F 29.94 in NW 2.0 mph 9.0 mph 97 % 0.00 in
02:15 32.8 °F 32.0 °F 29.94 in NW 2.0 mph 9.0 mph 97 % 0.00 in
02:20 32.7 °F 32.0 °F 29.94 in NW 2.0 mph 8.0 mph 98 % 0.01 in
02:25 32.8 °F 32.0 °F 29.94 in NW 2.0 mph 8.0 mph 97 % 0.00 in
02:30 32.8 °F 32.0 °F 29.94 in NW 2.0 mph 8.0 mph 97 % 0.00 in
02:35 32.8 °F 32.0 °F 29.95 in NW 3.0 mph 6.0 mph 98 % 0.01 in
02:40 32.8 °F 32.0 °F 29.95 in NW 3.0 mph 8.0 mph 97 % 0.00 in
02:45 32.8 °F 32.0 °F 29.95 in NW 3.0 mph 8.0 mph 97 % 0.00 in
02:50 32.8 °F 32.0 °F 29.95 in WNW 2.0 mph 9.0 mph 98 % 0.01 in
02:55 32.8 °F 32.0 °F 29.95 in NW 2.0 mph 9.0 mph 97 % 0.00 in
03:00 32.8 °F 32.0 °F 29.95 in NW 2.0 mph 9.0 mph 97 % 0.00 in
03:05 32.8 °F 32.0 °F 29.95 in NW 2.0 mph 9.0 mph 97 % 0.00 in
03:06 32.7 °F 32.0 °F 29.95 in NW 5.0 mph 8.0 mph 98 % 0.01 in
03:10 32.7 °F 32.0 °F 29.95 in NW 2.0 mph 8.0 mph 97 % 0.00 in
03:15 32.7 °F 32.0 °F 29.95 in NW 2.0 mph 8.0 mph 97 % 0.00 in
03:20 32.7 °F 32.0 °F 29.95 in NW 2.0 mph 8.0 mph 97 % 0.00 in
03:21 32.8 °F 32.0 °F 29.95 in NW 2.0 mph 6.0 mph 98 % 0.00 in
03:25 32.7 °F 32.0 °F 29.96 in NW 3.0 mph 8.0 mph 97 % 0.00 in
03:35 32.7 °F 32.0 °F 29.96 in NW 3.0 mph 9.0 mph 97 % 0.00 in
03:36 32.7 °F 32.0 °F 29.96 in NW 3.0 mph 8.0 mph 98 % 0.00 in
03:40 32.7 °F 32.0 °F 29.96 in NW 3.0 mph 9.0 mph 97 % 0.00 in
03:45 32.7 °F 32.0 °F 29.96 in NW 3.0 mph 9.0 mph 97 % 0.00 in
03:50 32.7 °F 32.0 °F 29.96 in NW 3.0 mph 10.0 mph 97 % 0.00 in
03:51 32.7 °F 32.0 °F 29.96 in WNW 3.0 mph 10.0 mph 98 % 0.00 in
03:55 32.7 °F 32.0 °F 29.96 in NW 3.0 mph 10.0 mph 97 % 0.00 in
04:00 32.7 °F 32.0 °F 29.96 in NW 3.0 mph 10.0 mph 97 % 0.00 in
04:05 32.7 °F 32.0 °F 29.96 in NW 3.0 mph 10.0 mph 97 % 0.00 in
04:06 32.7 °F 32.0 °F 29.96 in NW 2.0 mph 8.0 mph 98 % 0.01 in
04:10 32.7 °F 32.0 °F 29.96 in NW 3.0 mph 10.0 mph 97 % 0.00 in
04:15 32.7 °F 32.0 °F 29.96 in NW 3.0 mph 10.0 mph 97 % 0.00 in
04:20 32.7 °F 32.0 °F 29.97 in NW 3.0 mph 9.0 mph 97 % 0.00 in
04:21 32.7 °F 32.0 °F 29.96 in NW 3.0 mph 9.0 mph 98 % 0.01 in
04:25 32.7 °F 32.0 °F 29.97 in NW 3.0 mph 9.0 mph 97 % 0.00 in
04:30 32.7 °F 32.0 °F 29.97 in NW 3.0 mph 9.0 mph 97 % 0.00 in
04:35 32.7 °F 32.0 °F 29.97 in NW 3.0 mph 9.0 mph 97 % 0.00 in
04:36 32.7 °F 32.0 °F 29.97 in NW 1.0 mph 6.0 mph 98 % 0.01 in
04:40 32.7 °F 32.0 °F 29.97 in NW 3.0 mph 9.0 mph 97 % 0.00 in
04:45 32.7 °F 32.0 °F 29.97 in NW 3.0 mph 9.0 mph 97 % 0.00 in
04:50 32.7 °F 32.0 °F 29.97 in NW 3.0 mph 9.0 mph 97 % 0.00 in
04:51 32.7 °F 32.0 °F 29.97 in NW 4.0 mph 10.0 mph 98 % 0.01 in
04:55 32.7 °F 32.0 °F 29.97 in NW 2.0 mph 9.0 mph 97 % 0.00 in
05:00 32.7 °F 32.0 °F 29.97 in NW 2.0 mph 9.0 mph 97 % 0.00 in
05:05 32.7 °F 32.0 °F 29.97 in NW 2.0 mph 9.0 mph 97 % 0.00 in
05:06 32.7 °F 32.0 °F 29.96 in NW 7.0 mph 8.0 mph 98 % 0.00 in
05:10 32.7 °F 32.0 °F 29.97 in WNW 3.0 mph 10.0 mph 97 % 0.00 in
05:15 32.7 °F 32.0 °F 29.97 in WNW 3.0 mph 10.0 mph 97 % 0.00 in
05:20 32.6 °F 31.8 °F 29.97 in NW 3.0 mph 8.0 mph 97 % 0.00 in
05:21 32.6 °F 32.0 °F 29.96 in NW 2.0 mph 10.0 mph 98 % 0.00 in
05:25 32.6 °F 31.8 °F 29.97 in NW 3.0 mph 8.0 mph 97 % 0.00 in
05:30 32.6 °F 31.8 °F 29.97 in NW 3.0 mph 8.0 mph 97 % 0.00 in
05:35 32.6 °F 31.8 °F 29.97 in NW 3.0 mph 10.0 mph 97 % 0.00 in
05:36 32.6 °F 32.0 °F 29.97 in NW 3.0 mph 8.0 mph 98 % 0.00 in
05:40 32.6 °F 31.8 °F 29.97 in NW 3.0 mph 10.0 mph 97 % 0.00 in
05:45 32.6 °F 31.8 °F 29.97 in NW 3.0 mph 10.0 mph 97 % 0.00 in
05:50 32.6 °F 31.8 °F 29.97 in NW 3.0 mph 8.0 mph 97 % 0.00 in
05:51 32.6 °F 32.0 °F 29.97 in NW 1.0 mph 8.0 mph 98 % 0.00 in
05:55 32.6 °F 31.8 °F 29.97 in NW 3.0 mph 8.0 mph 97 % 0.00 in
06:00 32.6 °F 31.8 °F 29.97 in NW 3.0 mph 8.0 mph 97 % 0.00 in
06:05 32.6 °F 31.8 °F 29.98 in NW 2.0 mph 5.0 mph 97 % 0.00 in
06:06 32.6 °F 32.0 °F 29.98 in Calm   6.0 mph 98 % 0.00 in
06:10 32.6 °F 31.8 °F 29.98 in NW 2.0 mph 5.0 mph 97 % 0.00 in
06:15 32.6 °F 31.8 °F 29.98 in NW 2.0 mph 5.0 mph 97 % 0.00 in
06:20 32.6 °F 31.8 °F 29.98 in NW 2.0 mph 5.0 mph 97 % 0.00 in
06:21 32.6 °F 32.0 °F 29.99 in NNW 2.0 mph 5.0 mph 98 % 0.00 in
06:25 32.6 °F 31.8 °F 29.99 in WNW 2.0 mph 8.0 mph 97 % 0.00 in
06:30 32.6 °F 31.8 °F 29.99 in WNW 2.0 mph 8.0 mph 97 % 0.00 in
06:35 32.6 °F 31.8 °F 29.99 in WNW 2.0 mph 8.0 mph 97 % 0.00 in
06:36 32.6 °F 32.0 °F 29.99 in WNW 1.0 mph 4.0 mph 98 % 0.00 in
06:40 32.6 °F 31.8 °F 29.99 in NNW 2.0 mph 5.0 mph 97 % 0.00 in
06:45 32.6 °F 31.8 °F 29.99 in NNW 2.0 mph 5.0 mph 97 % 0.00 in
06:50 32.6 °F 31.8 °F 29.99 in NNW 2.0 mph 5.0 mph 97 % 0.00 in
06:51 32.5 °F 32.0 °F 30.00 in Calm   3.0 mph 98 % 0.00 in
06:55 32.6 °F 31.8 °F 30.00 in West 1.0 mph 4.0 mph 97 % 0.00 in
07:00 32.6 °F 31.8 °F 30.00 in West 1.0 mph 4.0 mph 97 % 0.00 in
07:05 32.6 °F 31.8 °F 30.00 in West 1.0 mph 4.0 mph 97 % 0.00 in
07:06 32.5 °F 32.0 °F 30.00 in WNW 1.0 mph 4.0 mph 98 % 0.00 in
07:10 32.5 °F 31.8 °F 30.00 in West 1.0 mph 4.0 mph 97 % 0.00 in
07:15 32.5 °F 31.8 °F 30.00 in West 1.0 mph 4.0 mph 97 % 0.00 in
07:20 32.6 °F 31.8 °F 30.00 in NW 1.0 mph 5.0 mph 97 % 0.00 in
07:21 32.5 °F 32.0 °F 30.00 in NW 1.0 mph 4.0 mph 98 % 0.00 in
07:25 32.6 °F 31.8 °F 30.00 in NW 1.0 mph 5.0 mph 97 % 0.00 in
07:30 32.6 °F 31.8 °F 30.00 in NW 1.0 mph 5.0 mph 97 % 0.00 in
07:35 32.6 °F 31.8 °F 30.01 in NW 1.0 mph 4.0 mph 97 % 0.00 in
07:36 32.6 °F 32.0 °F 30.00 in NW 1.0 mph 5.0 mph 98 % 0.01 in
07:40 32.6 °F 31.8 °F 30.01 in NW 1.0 mph 4.0 mph 97 % 0.00 in
07:45 32.6 °F 31.8 °F 30.01 in NW 1.0 mph 4.0 mph 97 % 0.00 in
07:50 32.6 °F 31.8 °F 30.01 in WNW 1.0 mph 5.0 mph 97 % 0.00 in
07:51 32.6 °F 32.0 °F 30.00 in WNW 4.0 mph 4.0 mph 98 % 0.01 in
07:55 32.6 °F 31.8 °F 30.01 in WNW 1.0 mph 5.0 mph 97 % 0.00 in
08:00 32.6 °F 31.8 °F 30.01 in WNW 1.0 mph 5.0 mph 97 % 0.00 in
08:05 32.6 °F 31.8 °F 30.01 in WNW 1.0 mph 5.0 mph 97 % 0.00 in
08:06 32.7 °F 32.0 °F 30.01 in NW 4.0 mph 8.0 mph 98 % 0.01 in
08:10 32.7 °F 32.0 °F 30.01 in WNW 2.0 mph 8.0 mph 97 % 0.00 in
08:15 32.7 °F 32.0 °F 30.01 in WNW 2.0 mph 8.0 mph 97 % 0.00 in
08:20 32.7 °F 32.0 °F 30.01 in WNW 2.0 mph 8.0 mph 97 % 0.00 in
08:21 32.8 °F 32.0 °F 30.01 in WNW 4.0 mph 5.0 mph 98 % 0.01 in
08:25 32.7 °F 32.0 °F 30.02 in NW 2.0 mph 6.0 mph 97 % 0.00 in
08:30 32.7 °F 32.0 °F 30.02 in NW 2.0 mph 6.0 mph 97 % 0.00 in
08:35 32.7 °F 32.0 °F 30.02 in NW 2.0 mph 6.0 mph 97 % 0.00 in
08:36 32.8 °F 32.0 °F 30.02 in NW 2.0 mph 6.0 mph 98 % 0.00 in
08:40 32.8 °F 32.0 °F 30.02 in NW 2.0 mph 7.0 mph 97 % 0.00 in
08:45 32.8 °F 32.0 °F 30.02 in NW 2.0 mph 7.0 mph 97 % 0.00 in
08:50 32.8 °F 32.0 °F 30.02 in NW 2.0 mph 7.0 mph 97 % 0.00 in
08:51 32.8 °F 32.0 °F 30.02 in NW 2.0 mph 8.0 mph 98 % 0.01 in
08:55 32.8 °F 32.0 °F 30.02 in WNW 2.0 mph 6.0 mph 97 % 0.00 in
09:00 32.8 °F 32.0 °F 30.02 in WNW 2.0 mph 6.0 mph 97 % 0.00 in
09:05 32.8 °F 32.0 °F 30.02 in WNW 2.0 mph 6.0 mph 97 % 0.00 in
09:06 32.8 °F 32.0 °F 30.03 in Calm   9.0 mph 98 % 0.01 in
09:10 32.8 °F 32.0 °F 30.03 in NW 2.0 mph 9.0 mph 97 % 0.00 in
09:15 32.8 °F 32.0 °F 30.03 in NW 2.0 mph 9.0 mph 97 % 0.00 in
09:20 32.8 °F 32.0 °F 30.03 in NW 2.0 mph 9.0 mph 97 % 0.00 in
09:21 32.9 °F 32.0 °F 30.03 in WNW 3.0 mph 4.0 mph 98 % 0.01 in
09:25 32.8 °F 32.0 °F 30.03 in WNW 2.0 mph 8.0 mph 97 % 0.00 in
09:30 32.8 °F 32.0 °F 30.03 in WNW 2.0 mph 8.0 mph 97 % 0.00 in
09:35 32.8 °F 32.0 °F 30.03 in WNW 2.0 mph 8.0 mph 97 % 0.00 in
09:37 32.9 °F 32.0 °F 30.03 in NNW 4.0 mph 5.0 mph 98 % 0.02 in
09:40 32.9 °F 32.1 °F 30.04 in WNW 2.0 mph 7.0 mph 97 % 0.00 in
09:45 32.9 °F 32.1 °F 30.04 in WNW 2.0 mph 7.0 mph 97 % 0.00 in
09:50 32.9 °F 32.1 °F 30.04 in WNW 2.0 mph 7.0 mph 97 % 0.00 in
09:51 33.0 °F 33.0 °F 30.04 in NW 3.0 mph 9.0 mph 98 % 0.01 in
09:55 33.0 °F 32.2 °F 30.04 in NW 2.0 mph 8.0 mph 97 % 0.00 in
10:00 33.0 °F 32.2 °F 30.04 in NW 2.0 mph 8.0 mph 97 % 0.00 in
10:05 33.0 °F 32.2 °F 30.04 in NW 2.0 mph 8.0 mph 97 % 0.00 in
10:06 33.2 °F 33.0 °F 30.05 in North 8.0 mph 8.0 mph 98 % 0.02 in
10:10 33.0 °F 32.2 °F 30.05 in NW 2.0 mph 9.0 mph 97 % 0.00 in
10:15 33.0 °F 32.2 °F 30.05 in NW 2.0 mph 9.0 mph 97 % 0.00 in
10:20 33.0 °F 32.2 °F 30.05 in NW 2.0 mph 9.0 mph 97 % 0.00 in
10:21 33.3 °F 33.0 °F 30.05 in WNW 3.0 mph 9.0 mph 98 % 0.02 in
10:25 33.2 °F 32.5 °F 30.06 in WNW 3.0 mph 9.0 mph 97 % 0.00 in
10:30 33.2 °F 32.5 °F 30.06 in WNW 3.0 mph 9.0 mph 97 % 0.00 in
10:35 33.2 °F 32.5 °F 30.06 in WNW 3.0 mph 9.0 mph 97 % 0.00 in
10:36 33.4 °F 33.0 °F 30.05 in NW 3.0 mph 6.0 mph 98 % 0.01 in
10:40 33.3 °F 32.5 °F 30.06 in WNW 3.0 mph 11.0 mph 97 % 0.00 in
10:45 33.3 °F 32.5 °F 30.06 in WNW 3.0 mph 11.0 mph 97 % 0.00 in
10:50 33.3 °F 32.5 °F 30.06 in WNW 3.0 mph 11.0 mph 97 % 0.00 in
10:52 33.6 °F 33.0 °F 30.06 in WNW 2.0 mph 5.0 mph 98 % 0.02 in
10:55 33.4 °F 32.7 °F 30.07 in NW 2.0 mph 6.0 mph 97 % 0.00 in
11:00 33.4 °F 32.7 °F 30.07 in NW 2.0 mph 6.0 mph 97 % 0.00 in
11:05 33.4 °F 32.7 °F 30.07 in NW 2.0 mph 6.0 mph 97 % 0.00 in
11:06 33.8 °F 33.0 °F 30.06 in WNW 2.0 mph 4.0 mph 98 % 0.01 in
11:10 33.6 °F 32.8 °F 30.07 in WNW 2.0 mph 5.0 mph 97 % 0.00 in
11:15 33.6 °F 32.8 °F 30.07 in WNW 2.0 mph 5.0 mph 97 % 0.00 in
11:20 33.6 °F 32.8 °F 30.07 in WNW 2.0 mph 5.0 mph 97 % 0.00 in
11:22 33.7 °F 33.0 °F 30.06 in NW 2.0 mph 5.0 mph 98 % 0.01 in
11:25 33.7 °F 32.9 °F 30.07 in WNW 2.0 mph 8.0 mph 97 % 0.00 in
11:30 33.7 °F 32.9 °F 30.07 in WNW 2.0 mph 8.0 mph 97 % 0.00 in
11:35 33.7 °F 32.9 °F 30.07 in WNW 2.0 mph 8.0 mph 97 % 0.00 in
11:37 33.6 °F 33.0 °F 30.05 in NW 2.0 mph 10.0 mph 98 % 0.02 in
11:40 33.7 °F 32.9 °F 30.06 in NW 2.0 mph 8.0 mph 97 % 0.00 in
11:45 33.7 °F 32.9 °F 30.06 in NW 2.0 mph 8.0 mph 97 % 0.00 in
11:50 33.7 °F 32.9 °F 30.06 in NW 2.0 mph 8.0 mph 97 % 0.00 in
11:52 33.7 °F 33.0 °F 30.05 in NW 2.0 mph 5.0 mph 98 % 0.01 in
11:55 33.7 °F 32.9 °F 30.06 in NW 2.0 mph 10.0 mph 97 % 0.00 in
12:00 33.7 °F 32.9 °F 30.06 in NW 2.0 mph 10.0 mph 97 % 0.00 in
12:05 33.7 °F 32.9 °F 30.06 in NW 2.0 mph 10.0 mph 97 % 0.00 in
12:07 33.5 °F 33.0 °F 30.05 in West 4.0 mph 9.0 mph 98 % 0.01 in
12:10 33.7 °F 32.9 °F 30.06 in WNW 2.0 mph 11.0 mph 97 % 0.00 in
12:15 33.7 °F 32.9 °F 30.06 in WNW 2.0 mph 11.0 mph 97 % 0.00 in
12:20 33.7 °F 32.9 °F 30.06 in WNW 2.0 mph 11.0 mph 97 % 0.00 in
12:22 33.6 °F 33.0 °F 30.05 in NW 2.0 mph 5.0 mph 98 % 0.01 in
12:25 33.5 °F 32.7 °F 30.05 in NW 3.0 mph 6.0 mph 97 % 0.00 in
12:30 33.5 °F 32.7 °F 30.05 in NW 3.0 mph 6.0 mph 97 % 0.00 in
12:35 33.5 °F 32.7 °F 30.05 in NW 3.0 mph 6.0 mph 97 % 0.00 in
12:37 33.5 °F 33.0 °F 30.05 in NW 1.0 mph 8.0 mph 98 % 0.00 in
12:40 33.6 °F 32.8 °F 30.05 in NW 2.0 mph 5.0 mph 97 % 0.00 in
12:45 33.6 °F 32.8 °F 30.05 in NW 2.0 mph 5.0 mph 97 % 0.00 in
12:50 33.6 °F 32.8 °F 30.05 in NW 2.0 mph 5.0 mph 97 % 0.00 in
12:52 33.6 °F 33.0 °F 30.04 in NW 5.0 mph 6.0 mph 98 % 0.00 in
12:55 33.6 °F 32.8 °F 30.05 in NW 3.0 mph 8.0 mph 97 % 0.00 in
13:00 33.6 °F 32.8 °F 30.05 in NW 3.0 mph 8.0 mph 97 % 0.00 in
13:05 33.6 °F 32.8 °F 30.05 in NW 3.0 mph 8.0 mph 97 % 0.00 in
13:07 33.7 °F 33.0 °F 30.04 in SSW 1.0 mph 8.0 mph 98 % 0.00 in
13:10 33.6 °F 32.8 °F 30.05 in NW 3.0 mph 10.0 mph 97 % 0.00 in
13:15 33.6 °F 32.8 °F 30.05 in NW 3.0 mph 10.0 mph 97 % 0.00 in
13:20 33.6 °F 32.8 °F 30.05 in NW 3.0 mph 10.0 mph 97 % 0.00 in
13:22 33.8 °F 33.0 °F 30.04 in West 3.0 mph 10.0 mph 98 % 0.00 in
13:25 33.7 °F 32.9 °F 30.05 in NW 2.0 mph 10.0 mph 97 % 0.00 in
13:30 33.7 °F 32.9 °F 30.05 in NW 2.0 mph 10.0 mph 97 % 0.00 in
13:35 33.7 °F 32.9 °F 30.05 in NW 2.0 mph 10.0 mph 97 % 0.00 in
13:37 33.9 °F 33.0 °F 30.04 in NNW 6.0 mph 9.0 mph 98 % 0.00 in
13:40 33.9 °F 33.1 °F 30.05 in WNW 2.0 mph 7.0 mph 97 % 0.00 in
13:45 33.9 °F 33.1 °F 30.05 in WNW 2.0 mph 7.0 mph 97 % 0.00 in
13:50 33.9 °F 33.1 °F 30.05 in WNW 2.0 mph 7.0 mph 97 % 0.00 in
13:52 34.0 °F 34.0 °F 30.05 in NW 1.0 mph 4.0 mph 98 % 0.00 in
13:55 33.9 °F 33.1 °F 30.05 in NW 3.0 mph 9.0 mph 97 % 0.00 in
14:00 33.9 °F 33.1 °F 30.05 in NW 3.0 mph 9.0 mph 97 % 0.00 in
14:05 33.9 °F 33.1 °F 30.05 in NW 3.0 mph 9.0 mph 97 % 0.00 in
14:08 34.0 °F 33.0 °F 30.05 in NNW 1.0 mph 4.0 mph 97 % 0.00 in
14:10 34.0 °F 33.2 °F 30.06 in NW 2.0 mph 8.0 mph 97 % 0.00 in
14:15 34.0 °F 33.2 °F 30.06 in NW 2.0 mph 8.0 mph 97 % 0.00 in
14:20 34.0 °F 33.2 °F 30.06 in NW 2.0 mph 8.0 mph 97 % 0.00 in
14:22 34.1 °F 34.0 °F 30.05 in NW 1.0 mph 5.0 mph 98 % 0.00 in
14:25 34.0 °F 33.0 °F 30.06 in NW 1.0 mph 4.0 mph 96 % 0.00 in
14:30 34.0 °F 33.0 °F 30.06 in NW 1.0 mph 4.0 mph 96 % 0.00 in
14:35 34.0 °F 33.0 °F 30.06 in NW 1.0 mph 4.0 mph 96 % 0.00 in
14:37 34.2 °F 34.0 °F 30.06 in NW 2.0 mph 5.0 mph 97 % 0.00 in
14:40 34.1 °F 33.3 °F 30.06 in NW 1.0 mph 5.0 mph 97 % 0.00 in
14:45 34.1 °F 33.3 °F 30.06 in NW 1.0 mph 5.0 mph 97 % 0.00 in
14:50 34.1 °F 33.3 °F 30.06 in NW 1.0 mph 5.0 mph 97 % 0.00 in
14:52 34.3 °F 34.0 °F 30.06 in NW 1.0 mph 5.0 mph 97 % 0.00 in
14:55 34.2 °F 33.2 °F 30.07 in NW 2.0 mph 4.0 mph 96 % 0.00 in
15:00 34.2 °F 33.2 °F 30.07 in NW 2.0 mph 4.0 mph 96 % 0.00 in
15:05 34.2 °F 33.2 °F 30.07 in NW 2.0 mph 4.0 mph 96 % 0.00 in
15:07 34.3 °F 34.0 °F 30.07 in NW 1.0 mph 6.0 mph 97 % 0.01 in
15:10 34.3 °F 33.3 °F 30.07 in WNW 2.0 mph 5.0 mph 96 % 0.00 in
15:15 34.3 °F 33.3 °F 30.07 in WNW 2.0 mph 5.0 mph 96 % 0.00 in
15:20 34.3 °F 33.3 °F 30.07 in WNW 2.0 mph 5.0 mph 96 % 0.00 in
15:22 34.4 °F 34.0 °F 30.08 in NW 2.0 mph 8.0 mph 97 % 0.01 in
15:25 34.4 °F 33.4 °F 30.08 in NW 2.0 mph 6.0 mph 96 % 0.00 in
15:30 34.4 °F 33.4 °F 30.08 in NW 2.0 mph 6.0 mph 96 % 0.00 in
15:35 34.4 °F 33.4 °F 30.08 in NW 2.0 mph 6.0 mph 96 % 0.00 in
15:37 34.5 °F 34.0 °F 30.08 in NW 2.0 mph 6.0 mph 97 % 0.01 in
15:40 34.5 °F 33.5 °F 30.08 in NW 2.0 mph 8.0 mph 96 % 0.00 in
15:45 34.5 °F 33.5 °F 30.08 in NW 2.0 mph 8.0 mph 96 % 0.00 in
15:50 34.5 °F 33.5 °F 30.08 in NW 2.0 mph 8.0 mph 96 % 0.00 in
15:52 34.5 °F 34.0 °F 30.08 in WNW 3.0 mph 6.0 mph 96 % 0.01 in
15:55 34.5 °F 33.2 °F 30.09 in NW 2.0 mph 5.0 mph 95 % 0.00 in
16:00 34.5 °F 33.2 °F 30.09 in NW 2.0 mph 5.0 mph 95 % 0.00 in
16:05 34.5 °F 33.2 °F 30.09 in NW 2.0 mph 5.0 mph 95 % 0.00 in
16:07 34.5 °F 34.0 °F 30.09 in NW 4.0 mph 7.0 mph 96 % 0.00 in
16:10 34.5 °F 33.2 °F 30.09 in NW 2.0 mph 6.0 mph 95 % 0.00 in
16:15 34.5 °F 33.2 °F 30.09 in NW 2.0 mph 6.0 mph 95 % 0.00 in
16:20 34.5 °F 33.2 °F 30.10 in NNW 1.0 mph 7.0 mph 95 % 0.00 in
16:23 34.6 °F 34.0 °F 30.09 in Calm   4.0 mph 96 % 0.00 in
16:25 34.5 °F 33.2 °F 30.10 in NNW 1.0 mph 7.0 mph 95 % 0.00 in
16:30 34.5 °F 33.2 °F 30.10 in NNW 1.0 mph 7.0 mph 95 % 0.00 in
16:35 34.6 °F 33.3 °F 30.10 in West 1.0 mph 9.0 mph 95 % 0.00 in
16:37 34.5 °F 34.0 °F 30.10 in NW 1.0 mph 3.0 mph 96 % 0.00 in
16:40 34.6 °F 33.3 °F 30.10 in West 1.0 mph 9.0 mph 95 % 0.00 in
16:45 34.6 °F 33.3 °F 30.10 in West 1.0 mph 9.0 mph 95 % 0.00 in
16:50 34.5 °F 33.2 °F 30.11 in WNW 1.0 mph 3.0 mph 95 % 0.00 in
16:52 34.5 °F 34.0 °F 30.11 in Calm   4.0 mph 96 % 0.00 in
16:55 34.5 °F 33.2 °F 30.11 in WNW 1.0 mph 3.0 mph 95 % 0.00 in
17:00 34.5 °F 33.2 °F 30.11 in WNW 1.0 mph 3.0 mph 95 % 0.00 in
17:05 34.5 °F 33.2 °F 30.11 in NNE 1.0 mph 4.0 mph 95 % 0.00 in
17:07 34.5 °F 34.0 °F 30.11 in Calm   2.0 mph 96 % 0.00 in
17:10 34.5 °F 33.2 °F 30.11 in NNE 1.0 mph 4.0 mph 95 % 0.00 in
17:15 34.5 °F 33.2 °F 30.11 in NNE 1.0 mph 4.0 mph 95 % 0.00 in
17:20 34.5 °F 33.2 °F 30.12 in Calm   4.0 mph 95 % 0.00 in
17:22 34.4 °F 33.0 °F 30.12 in Calm   2.0 mph 96 % 0.00 in
17:25 34.5 °F 33.2 °F 30.12 in Calm   4.0 mph 95 % 0.00 in
17:30 34.5 °F 33.2 °F 30.12 in Calm   4.0 mph 95 % 0.00 in
17:35 34.5 °F 33.2 °F 30.12 in Calm   4.0 mph 95 % 0.00 in
17:37 34.5 °F 34.0 °F 30.12 in Calm   3.0 mph 96 % 0.00 in
17:40 34.4 °F 33.1 °F 30.12 in WNW 1.0 mph 3.0 mph 95 % 0.00 in
17:45 34.4 °F 33.1 °F 30.12 in WNW 1.0 mph 3.0 mph 95 % 0.00 in
17:50 34.4 °F 33.1 °F 30.12 in WNW 1.0 mph 3.0 mph 95 % 0.00 in
17:52 34.4 °F 33.0 °F 30.12 in West 1.0 mph 4.0 mph 96 % 0.00 in
17:55 34.4 °F 33.1 °F 30.13 in Calm   3.0 mph 95 % 0.00 in
18:00 34.4 °F 33.1 °F 30.13 in Calm   3.0 mph 95 % 0.00 in
18:05 34.4 °F 33.1 °F 30.13 in Calm   3.0 mph 95 % 0.00 in
18:07 34.3 °F 33.0 °F 30.13 in West 1.0 mph 6.0 mph 96 % 0.00 in
18:10 34.4 °F 33.1 °F 30.13 in West 1.0 mph 4.0 mph 95 % 0.00 in
18:15 34.4 °F 33.1 °F 30.13 in West 1.0 mph 4.0 mph 95 % 0.00 in
18:20 34.3 °F 33.0 °F 30.13 in West 1.0 mph 6.0 mph 95 % 0.00 in
18:22 34.1 °F 33.0 °F 30.13 in WNW 1.0 mph 5.0 mph 96 % 0.00 in
18:25 34.3 °F 33.0 °F 30.13 in West 1.0 mph 6.0 mph 95 % 0.00 in
18:30 34.3 °F 33.0 °F 30.13 in West 1.0 mph 6.0 mph 95 % 0.00 in
18:35 34.1 °F 32.6 °F 30.14 in WNW 1.0 mph 5.0 mph 94 % 0.00 in
18:37 33.8 °F 33.0 °F 30.13 in WNW 1.0 mph 3.0 mph 95 % 0.00 in
18:40 34.1 °F 32.6 °F 30.14 in WNW 1.0 mph 5.0 mph 94 % 0.00 in
18:45 34.1 °F 32.6 °F 30.14 in WNW 1.0 mph 5.0 mph 94 % 0.00 in
18:50 33.8 °F 32.5 °F 30.14 in WNW 1.0 mph 6.0 mph 95 % 0.00 in
18:52 33.6 °F 33.0 °F 30.13 in WNW 1.0 mph 3.0 mph 96 % 0.00 in
18:55 33.8 °F 32.5 °F 30.14 in WNW 1.0 mph 6.0 mph 95 % 0.00 in
19:00 33.8 °F 32.5 °F 30.14 in WNW 1.0 mph 6.0 mph 95 % 0.00 in
19:05 33.6 °F 32.0 °F 30.14 in WNW 1.0 mph 3.0 mph 94 % 0.00 in
19:07 33.4 °F 32.0 °F 30.14 in Calm   5.0 mph 95 % 0.00 in
19:10 33.6 °F 32.0 °F 30.14 in WNW 1.0 mph 3.0 mph 94 % 0.00 in
19:15 33.6 °F 32.0 °F 30.14 in WNW 1.0 mph 3.0 mph 94 % 0.00 in
19:20 33.6 °F 32.0 °F 30.14 in WNW 1.0 mph 3.0 mph 94 % 0.00 in
19:22 33.1 °F 32.0 °F 30.14 in Calm   4.0 mph 96 % 0.00 in
19:25 33.4 °F 32.1 °F 30.14 in WNW 1.0 mph 5.0 mph 95 % 0.00 in
19:30 33.4 °F 32.1 °F 30.14 in WNW 1.0 mph 5.0 mph 95 % 0.00 in
19:35 33.4 °F 32.1 °F 30.14 in WNW 1.0 mph 5.0 mph 95 % 0.00 in
19:37 32.8 °F 32.0 °F 30.14 in Calm   3.0 mph 96 % 0.00 in
19:40 33.1 °F 31.6 °F 30.14 in West 1.0 mph 4.0 mph 94 % 0.00 in
19:45 33.1 °F 31.6 °F 30.14 in West 1.0 mph 4.0 mph 94 % 0.00 in
19:50 33.1 °F 31.6 °F 30.14 in West 1.0 mph 4.0 mph 94 % 0.00 in
19:53 32.6 °F 32.0 °F 30.13 in Calm   1.0 mph 96 % 0.00 in
19:55 32.8 °F 31.5 °F 30.14 in West 1.0 mph 3.0 mph 95 % 0.00 in
20:00 32.8 °F 31.5 °F 30.14 in West 1.0 mph 3.0 mph 95 % 0.00 in
20:05 32.8 °F 31.5 °F 30.14 in West 1.0 mph 3.0 mph 95 % 0.00 in
20:07 32.5 °F 32.0 °F 30.13 in Calm   1.0 mph 96 % 0.00 in
20:10 32.6 °F 31.3 °F 30.14 in Calm   1.0 mph 95 % 0.00 in
20:15 32.6 °F 31.3 °F 30.14 in Calm   1.0 mph 95 % 0.00 in
20:20 32.6 °F 31.3 °F 30.14 in Calm   1.0 mph 95 % 0.00 in
20:22 32.4 °F 31.0 °F 30.13 in Calm   7.0 mph 96 % 0.00 in
20:25 32.5 °F 31.2 °F 30.14 in Calm   7.0 mph 95 % 0.00 in
20:35 32.5 °F 31.2 °F 30.14 in Calm   7.0 mph 95 % 0.00 in
20:37 32.2 °F 31.0 °F 30.13 in West 1.0 mph 1.0 mph 96 % 0.00 in
20:40 32.4 °F 31.1 °F 30.14 in Calm   2.0 mph 95 % 0.00 in
20:45 32.4 °F 31.1 °F 30.14 in Calm   2.0 mph 95 % 0.00 in
20:50 32.4 °F 31.1 °F 30.14 in Calm   2.0 mph 95 % 0.00 in
20:52 32.1 °F 31.0 °F 30.13 in Calm   3.0 mph 96 % 0.00 in
20:55 32.2 °F 30.9 °F 30.14 in Calm   3.0 mph 95 % 0.00 in
21:00 32.2 °F 30.9 °F 30.14 in Calm   3.0 mph 95 % 0.00 in
21:05 32.2 °F 30.9 °F 30.14 in Calm   3.0 mph 95 % 0.00 in
21:07 32.0 °F 31.0 °F 30.13 in Calm   2.0 mph 96 % 0.00 in
21:10 32.1 °F 30.8 °F 30.14 in Calm   3.0 mph 95 % 0.00 in
21:15 32.1 °F 30.8 °F 30.14 in Calm   3.0 mph 95 % 0.00 in
21:20 32.1 °F 30.8 °F 30.14 in Calm   3.0 mph 95 % 0.00 in
21:22 31.8 °F 31.0 °F 30.13 in West 1.0 mph 2.0 mph 96 % 0.00 in
21:25 32.0 °F 30.7 °F 30.14 in Calm   3.0 mph 95 % 0.00 in
21:30 32.0 °F 30.7 °F 30.14 in Calm   3.0 mph 95 % 0.00 in
21:35 32.0 °F 30.7 °F 30.14 in Calm   3.0 mph 95 % 0.00 in
21:37 31.6 °F 31.0 °F 30.13 in Calm     96 % 0.00 in
21:40 31.7 °F 30.4 °F 30.14 in Calm   2.0 mph 95 % 0.00 in
21:45 31.7 °F 30.4 °F 30.14 in Calm   2.0 mph 95 % 0.00 in
21:50 31.7 °F 30.4 °F 30.14 in Calm   2.0 mph 95 % 0.00 in
21:52 31.4 °F 30.0 °F 30.13 in Calm   3.0 mph 96 % 0.00 in
21:55 31.6 °F 30.3 °F 30.14 in Calm   4.0 mph 95 % 0.00 in
22:00 31.6 °F 30.3 °F 30.14 in Calm   4.0 mph 95 % 0.00 in
22:05 31.6 °F 30.3 °F 30.14 in Calm   4.0 mph 95 % 0.00 in
22:07 31.3 °F 30.0 °F 30.13 in Calm   1.0 mph 96 % 0.00 in
22:10 31.4 °F 30.1 °F 30.14 in Calm   4.0 mph 95 % 0.00 in
22:15 31.4 °F 30.1 °F 30.14 in Calm   4.0 mph 95 % 0.00 in
22:20 31.4 °F 30.1 °F 30.14 in Calm   4.0 mph 95 % 0.00 in
22:23 31.2 °F 30.0 °F 30.13 in Calm   1.0 mph 96 % 0.00 in
22:25 31.2 °F 29.9 °F 30.14 in Calm     95 % 0.00 in
22:30 31.2 °F 29.9 °F 30.14 in Calm     95 % 0.00 in
22:35 31.2 °F 29.9 °F 30.14 in Calm     95 % 0.00 in
22:38 31.1 °F 30.0 °F 30.14 in WSW 2.0 mph 2.0 mph 96 % 0.00 in
22:40 31.1 °F 29.8 °F 30.14 in Calm     95 % 0.00 in
22:45 31.1 °F 29.8 °F 30.14 in Calm     95 % 0.00 in
22:50 31.1 °F 29.8 °F 30.14 in Calm   2.0 mph 95 % 0.00 in
22:53 31.0 °F 30.0 °F 30.14 in Calm   2.0 mph 96 % 0.00 in
22:55 31.1 °F 29.8 °F 30.14 in Calm   2.0 mph 95 % 0.00 in
23:00 31.1 °F 29.8 °F 30.14 in Calm   2.0 mph 95 % 0.00 in
23:05 31.0 °F 29.7 °F 30.15 in Calm   2.0 mph 95 % 0.00 in
23:08 30.9 °F 30.0 °F 30.14 in Calm   2.0 mph 96 % 0.00 in
23:10 31.0 °F 29.7 °F 30.15 in Calm   2.0 mph 95 % 0.00 in
23:15 31.0 °F 29.7 °F 30.15 in Calm   2.0 mph 95 % 0.00 in
23:20 30.9 °F 29.6 °F 30.15 in Calm   2.0 mph 95 % 0.00 in
23:23 30.9 °F 30.0 °F 30.15 in Calm   3.0 mph 96 % 0.00 in
23:25 30.9 °F 29.6 °F 30.15 in Calm   2.0 mph 95 % 0.00 in
23:30 30.9 °F 29.6 °F 30.15 in Calm   2.0 mph 95 % 0.00 in
23:38 30.9 °F 30.0 °F 30.15 in Calm     96 % 0.00 in
23:40 30.9 °F 29.6 °F 30.16 in Calm   3.0 mph 95 % 0.00 in
23:45 30.9 °F 29.6 °F 30.16 in Calm   3.0 mph 95 % 0.00 in
23:50 30.9 °F 29.6 °F 30.16 in Calm   3.0 mph 95 % 0.00 in
23:53 31.0 °F 30.0 °F 30.15 in Calm   4.0 mph 96 % 0.00 in
23:55 30.9 °F 29.6 °F 30.16 in Calm   3.0 mph 95 % 0.00 in
Des Moines Weather and Climate
Compliments of Weather Underground - 4.75 mb

Script developed by  Jim McMurry - jmcmurry@mwt.net Adapted for the template by  Wim van der Kuil - Leuven-Template.eu

You find our weather info also at:

Weather Underground

Equipment we use:

Weather-station
Davis VP2 Plus

Weather-program
Davis Weatherlink.Com

Weather-server
iMac (Retina 4K, 21.5-inch, Late 2015)

Provider
Hostmonster.com

Davis VP2 Plus

Davis Weatherlink.Com

iMac (Retina 4K, 21.5-inch, Late 2015)

Hostmonster.com